Time,TemperatureF,DewpointF,PressureIn,WindDirection,WindDirectionDegrees,WindSpeedMPH,WindSpeedGustMPH,Humidity,HourlyPrecipIn,Conditions,Clouds,dailyrainin,SoftwareType,DateUTC
2013-01-10 14:00:00,46.0,30.0,-100.00,NW,316,9.0,19.0,54,-99.99,,,-99.99,,2013-01-10 19:00:00,
2013-01-10 14:23:00,46.0,30.0,-100.00,NW,316,9.0,19.0,54,-99.99,,,-99.99,,2013-01-10 19:23:00,
2013-01-10 14:33:00,46.0,30.0,-100.00,NW,316,9.0,19.0,54,-99.99,,,-99.99,,2013-01-10 19:33:00,
2013-01-10 14:43:00,46.0,30.0,-100.00,NW,316,9.0,19.0,54,-99.99,,,-99.99,,2013-01-10 19:43:00,
2013-01-10 14:53:00,46.0,30.0,-100.00,NW,316,9.0,19.0,54,-99.99,,,-99.99,,2013-01-10 19:53:00,
2013-01-10 15:24:00,47.0,30.0,-100.00,NNW,327,10.0,18.0,52,-99.99,,,-99.99,,2013-01-10 20:24:00,
2013-01-10 15:33:00,47.0,30.0,-100.00,NNW,327,10.0,18.0,52,-99.99,,,-99.99,,2013-01-10 20:33:00,
2013-01-10 15:43:00,47.0,30.0,-100.00,NNW,327,10.0,18.0,52,-99.99,,,-99.99,,2013-01-10 20:43:00,
2013-01-10 15:53:00,47.0,30.0,-100.00,NNW,327,10.0,18.0,52,-99.99,,,-99.99,,2013-01-10 20:53:00,
2013-01-10 16:00:00,46.0,30.0,-100.00,NW,325,10.0,16.0,53,-99.99,,,-99.99,,2013-01-10 21:00:00,
2013-01-10 16:23:00,46.0,30.0,-100.00,NW,325,10.0,16.0,53,-99.99,,,-99.99,,2013-01-10 21:23:00,
2013-01-10 16:33:00,46.0,30.0,-100.00,NW,325,10.0,16.0,53,-99.99,,,-99.99,,2013-01-10 21:33:00,
2013-01-10 16:43:00,46.0,30.0,-100.00,NW,325,10.0,16.0,53,-99.99,,,-99.99,,2013-01-10 21:43:00,
2013-01-10 16:53:00,46.0,30.0,-100.00,NW,325,10.0,16.0,53,-99.99,,,-99.99,,2013-01-10 21:53:00,
2013-01-10 17:00:00,44.0,32.0,-100.00,NW,321,4.0,12.0,63,-99.99,,,-99.99,,2013-01-10 22:00:00,
2013-01-10 17:27:00,44.0,32.0,-100.00,NW,321,4.0,12.0,63,-99.99,,,-99.99,,2013-01-10 22:27:00,
2013-01-10 17:34:00,44.0,32.0,-100.00,NW,321,4.0,12.0,63,-99.99,,,-99.99,,2013-01-10 22:34:00,
2013-01-10 17:44:00,44.0,32.0,-100.00,NW,321,4.0,12.0,63,-99.99,,,-99.99,,2013-01-10 22:44:00,
2013-01-10 18:00:00,43.0,33.0,-100.00,NNE,15,5.0,11.0,66,-99.99,,,-99.99,,2013-01-10 23:00:00,
2013-01-10 18:23:00,43.0,33.0,-100.00,NNE,15,5.0,11.0,66,-99.99,,,-99.99,,2013-01-10 23:23:00,
2013-01-10 18:33:00,43.0,33.0,-100.00,NNE,15,5.0,11.0,66,-99.99,,,-99.99,,2013-01-10 23:33:00,
2013-01-10 18:43:00,43.0,33.0,-100.00,NNE,15,5.0,11.0,66,-99.99,,,-99.99,,2013-01-10 23:43:00,
2013-01-10 18:53:00,43.0,33.0,-100.00,NNE,15,5.0,11.0,66,-99.99,,,-99.99,,2013-01-10 23:53:00,
2013-01-10 19:00:00,44.0,32.0,-100.00,NNE,18,5.0,7.0,63,-99.99,,,-99.99,,2013-01-11 00:00:00,
2013-01-10 19:23:00,44.0,32.0,-100.00,NNE,18,5.0,7.0,63,-99.99,,,-99.99,,2013-01-11 00:23:00,
2013-01-10 19:33:00,44.0,32.0,-100.00,NNE,18,5.0,7.0,63,-99.99,,,-99.99,,2013-01-11 00:33:00,
2013-01-10 19:43:00,44.0,32.0,-100.00,NNE,18,5.0,7.0,63,-99.99,,,-99.99,,2013-01-11 00:43:00,
2013-01-10 19:53:00,44.0,32.0,-100.00,NNE,18,5.0,7.0,63,-99.99,,,-99.99,,2013-01-11 00:53:00,
2013-01-10 20:00:00,44.0,31.0,-100.00,North,1,0.0,8.0,60,-99.99,,,-99.99,,2013-01-11 01:00:00,
2013-01-10 20:24:00,44.0,31.0,-100.00,North,1,0.0,8.0,60,-99.99,,,-99.99,,2013-01-11 01:24:00,
2013-01-10 20:34:00,44.0,31.0,-100.00,North,1,0.0,8.0,60,-99.99,,,-99.99,,2013-01-11 01:34:00,
2013-01-10 20:43:00,44.0,31.0,-100.00,North,1,0.0,8.0,60,-99.99,,,-99.99,,2013-01-11 01:43:00,
2013-01-10 20:53:00,44.0,31.0,-100.00,North,1,0.0,8.0,60,-99.99,,,-99.99,,2013-01-11 01:53:00,
2013-01-10 21:00:00,43.0,30.0,-100.00,North,0,3.0,4.0,61,-99.99,,,-99.99,,2013-01-11 02:00:00,
2013-01-10 21:24:00,43.0,30.0,-100.00,North,0,3.0,4.0,61,-99.99,,,-99.99,,2013-01-11 02:24:00,
2013-01-10 21:33:00,43.0,30.0,-100.00,North,0,3.0,4.0,61,-99.99,,,-99.99,,2013-01-11 02:33:00,
2013-01-10 21:44:00,43.0,30.0,-100.00,North,0,3.0,4.0,61,-99.99,,,-99.99,,2013-01-11 02:44:00,
2013-01-10 21:54:00,43.0,30.0,-100.00,North,0,3.0,4.0,61,-99.99,,,-99.99,,2013-01-11 02:54:00,
2013-01-10 22:00:00,42.0,29.0,-100.00,NE,53,0.0,5.0,59,-99.99,,,-99.99,,2013-01-11 03:00:00,
2013-01-10 22:23:00,42.0,29.0,-100.00,NE,53,0.0,5.0,59,-99.99,,,-99.99,,2013-01-11 03:23:00,
2013-01-10 22:33:00,42.0,29.0,-100.00,NE,53,0.0,5.0,59,-99.99,,,-99.99,,2013-01-11 03:33:00,
2013-01-10 22:43:00,42.0,29.0,-100.00,NE,53,0.0,5.0,59,-99.99,,,-99.99,,2013-01-11 03:43:00,
2013-01-10 22:53:00,42.0,29.0,-100.00,NE,53,0.0,5.0,59,-99.99,,,-99.99,,2013-01-11 03:53:00,
2013-01-10 23:00:00,40.0,29.0,-100.00,NW,314,0.0,5.0,64,-99.99,,,-99.99,,2013-01-11 04:00:00,
2013-01-10 23:33:00,40.0,29.0,-100.00,NW,314,0.0,5.0,64,-99.99,,,-99.99,,2013-01-11 04:33:00,
2013-01-10 23:43:00,40.0,29.0,-100.00,NW,314,0.0,5.0,64,-99.99,,,-99.99,,2013-01-11 04:43:00,
2013-01-10 23:53:00,40.0,29.0,-100.00,NW,314,0.0,5.0,64,-99.99,,,-99.99,,2013-01-11 04:53:00,